This is the latest recevied weather packets stored in our database for station/object W8AN. If no packets are shown the sender has not sent any weather packets the latest 10 day(s).
| Time | Temp. | Humidity | Pressure | Rain* | Wind** | Luminosity | Snow |
|---|---|---|---|---|---|---|---|
| 1778139180 | 5.56° C | 78% | 4267.9 hPa | 0 mm | - | 0 W/m² | - |
| 1778138878 | 6.11° C | 78% | 4267.7 hPa | 0 mm | - | 0 W/m² | - |
| 1778138575 | 6.11° C | 77% | 4267.7 hPa | 0 mm | - | 0 W/m² | - |
| 1778138272 | 6.11° C | 77% | 4268 hPa | 0 mm | - | 0 W/m² | - |
| 1778137968 | 6.11° C | 78% | 4267.7 hPa | 0 mm | - | 0 W/m² | - |
| 1778137665 | 6.67° C | 77% | 4267.6 hPa | 0 mm | - | 0 W/m² | - |
| 1778137362 | 6.67° C | 77% | 4267.8 hPa | 0 mm | - | 0 W/m² | - |
| 1778137059 | 6.67° C | 77% | 4267.8 hPa | 0 mm | - | 0 W/m² | - |
| 1778136756 | 6.11° C | 78% | 4267.7 hPa | 0 mm | - | 0 W/m² | - |
| 1778136453 | 6.11° C | 78% | 4267.7 hPa | 0 mm | - | 0 W/m² | - |
| 1778136152 | 6.67° C | 79% | 4267.9 hPa | 0 mm | - | 0 W/m² | - |
| 1778135849 | 6.67° C | 79% | 4268.1 hPa | 0 mm | - | 0 W/m² | - |
| 1778135546 | 6.67° C | 78% | 4268 hPa | 0 mm | - | 0 W/m² | - |
| 1778135243 | 6.67° C | 78% | 4268 hPa | 0 mm | - | 0 W/m² | - |
| 1778134940 | 6.67° C | 78% | 4268.1 hPa | 0 mm | - | 0 W/m² | - |
| 1778134638 | 6.67° C | 78% | 4268 hPa | 0 mm | - | 0 W/m² | - |
| 1778134336 | 7.22° C | 78% | 4268 hPa | 0 mm | - | 0 W/m² | - |
| 1778134034 | 7.22° C | 77% | 4268.2 hPa | 0 mm | - | 0 W/m² | - |
| 1778133729 | 7.22° C | 77% | 4268 hPa | 0 mm | - | 0 W/m² | - |
| 1778133426 | 7.22° C | 76% | 4268.2 hPa | 0 mm | - | 0 W/m² | - |
| 1778133122 | 7.78° C | 76% | 4268.1 hPa | 0 mm | - | 0 W/m² | - |
| 1778132818 | 7.78° C | 75% | 4267.9 hPa | 0 mm | - | 0 W/m² | - |
| 1778132514 | 7.78° C | 75% | 4268.1 hPa | 0 mm | - | 0 W/m² | - |
| 1778132213 | 7.78° C | 75% | 4268.2 hPa | 0 mm | - | 0 W/m² | - |
| 1778131910 | 7.78° C | 75% | 4268 hPa | 0 mm | - | 0 W/m² | - |
* Rain latest hour (hover to see other rain measurements)
** Current wind speed in m/s (hover to see current wind gust speed)